This is the latest recevied weather packets stored in our database for station/object KI5GCD-13. If no packets are shown the sender has not sent any weather packets the latest 10 day(s).
| Time | Temp. | Humidity | Pressure | Rain* | Wind** | Luminosity | Snow |
|---|---|---|---|---|---|---|---|
| 1777850987 | 26.11° C | 39% | 1008.9 hPa | 0 mm | 0.89 m/s, 248° | - | - |
| 1777850687 | 26.67° C | 38% | 1008.6 hPa | 0 mm | 0 m/s | - | - |
| 1777850387 | 26.67° C | 38% | 1008.8 hPa | 0 mm | 0.45 m/s, 192° | - | - |
| 1777850087 | 26.67° C | 39% | 1008.8 hPa | 0 mm | 1.34 m/s, 226° | - | - |
| 1777849787 | 26.67° C | 38% | 1008.7 hPa | 0 mm | 0.89 m/s, 239° | - | - |
| 1777849488 | 26.67° C | 37% | 1008.8 hPa | 0 mm | 1.34 m/s, 241° | - | - |
| 1777849187 | 26.11° C | 37% | 1008.9 hPa | 0 mm | 1.79 m/s, 258° | - | - |
| 1777848887 | 26.67° C | 37% | 1008.7 hPa | 0 mm | 1.34 m/s, 196° | - | - |
| 1777848587 | 26.67° C | 37% | 1008.8 hPa | 0 mm | 1.34 m/s, 169° | - | - |
| 1777848287 | 26.67° C | 37% | 1008.8 hPa | 0 mm | 1.34 m/s, 270° | - | - |
| 1777847987 | 26.67° C | 36% | 1009 hPa | 0 mm | 0.89 m/s, 263° | - | - |
| 1777847687 | 27.22° C | 36% | 1009.1 hPa | 0 mm | 1.34 m/s, 289° | - | - |
| 1777847387 | 27.22° C | 36% | 1009 hPa | 0 mm | 1.79 m/s, 254° | - | - |
| 1777847087 | 27.22° C | 36% | 1008.7 hPa | 0 mm | 0.89 m/s, 253° | - | - |
| 1777846787 | 27.78° C | 34% | 1008.8 hPa | 0 mm | 0.89 m/s, 222° | - | - |
| 1777846487 | 27.78° C | 34% | 1009 hPa | 0 mm | 1.34 m/s, 343° | - | - |
| 1777846187 | 27.22° C | 33% | 1009.1 hPa | 0 mm | 2.24 m/s, 266° | - | - |
| 1777845887 | 27.22° C | 34% | 1009.2 hPa | 0 mm | 1.79 m/s, 190° | - | - |
| 1777845588 | 27.78° C | 35% | 1009 hPa | 0 mm | 2.24 m/s, 196° | - | - |
| 1777845287 | 27.22° C | 35% | 1009.1 hPa | 0 mm | 1.34 m/s, 244° | - | - |
| 1777844987 | 27.22° C | 37% | 1009.2 hPa | 0 mm | 1.79 m/s, 284° | - | - |
| 1777844687 | 26.67° C | 40% | 1009.3 hPa | 0 mm | 0.89 m/s, 208° | - | - |
| 1777844387 | 26.67° C | 39% | 1009.5 hPa | 0 mm | 1.34 m/s, 239° | - | - |
| 1777844087 | 26.67° C | 39% | 1009.5 hPa | 0 mm | 1.34 m/s, 199° | - | - |
| 1777843787 | 26.67° C | 39% | 1009.5 hPa | 0 mm | 2.24 m/s, 216° | - | - |
* Rain latest hour (hover to see other rain measurements)
** Current wind speed in m/s (hover to see current wind gust speed)